EW3614 Weather Reports


Display with metric or nautical units.
time (UTC)temp
F
wind
direction
speed
MPH
gust
MPH
rain 1hr
in
rain 24hr
in
rain mn
in
humidity
%
barometer
mb
20260510170020 51 124 0.0 7.0 0.00 0.20 0.18 96 952.8
20260510164516 0 130 0.0 3.0 0.01 0.22 0.18 96 952.9
20260510163018 51 153 0.0 5.0 0.03 0.22 0.18 97 952.8
20260510161513 51 140 0.0 3.0 0.05 0.22 0.18 97 952.7
20260510160019 50 140 0.0 4.0 0.09 0.22 0.18 97 952.7
20260510154513 50 140 0.0 5.0 0.15 0.21 0.17 96 952.7
20260510153010 0 139 0.0 4.0 0.14 0.19 0.15 96 952.8
20260510151509 50 139 0.0 7.0 0.13 0.17 0.13 96 952.7
20260510150015 50 198 0.0 5.0 0.08 0.12 0.08 96 952.8
20260510144517 51 196 1.0 3.0 0.02 0.06 0.02 96 952.0
20260510143010 51 196 0.0 7.0 0.00 0.04 0.00 96 952.1
20260510141510 0 211 0.0 5.0 0.00 0.04 0.00 96 952.2
20260510140001 50 213 0.0 7.0 0.00 0.04 0.00 97 952.1
20260510134607 0 215 2.0 7.0 0.00 0.04 0.00 98 952.1
20260510133057 49 209 1.0 6.0 0.00 0.04 0.00 97 952.2
20260510131555 49 214 1.0 5.0 0.00 0.04 0.00 98 951.8
20260510130052 48 214 0.0 3.0 0.00 0.04 0.00 98 952.1
20260510124559 48 213 0.0 6.0 0.00 0.04 0.00 98 952.3
20260510123047 0 197 2.0 6.0 0.00 0.04 0.00 97 952.3
20260510121545 47 109 0.0 4.0 0.00 0.04 0.00 98 952.1
20260510120043 47 204 0.0 6.0 0.00 0.04 0.00 98 952.0
20260510114543 47 240 3.0 8.0 0.00 0.04 0.00 98 951.8
20260510113041 46 217 1.0 5.0 0.00 0.04 0.00 98 951.8
20260510111538 0 216 2.0 5.0 0.00 0.04 0.00 97 951.9
20260510110135 46 202 2.0 6.0 0.00 0.04 0.00 97 951.4
20260510104536 46 183 0.0 4.0 0.00 0.04 0.00 97 951.3
20260510103031 46 183 0.0 4.0 0.00 0.04 0.00 97 951.3
20260510101530 46 183 0.0 3.0 0.00 0.04 0.00 97 951.1
20260510100029 0 183 0.0 0.0 0.00 0.04 0.00 97 950.9
20260510094538 46 183 0.0 0.0 0.00 0.04 0.00 97 950.7
20260510093026 46 183 0.0 5.0 0.00 0.04 0.00 97 950.5
20260510091525 45 181 0.0 0.0 0.00 0.04 0.00 97 950.4
20260510090022 45 181 0.0 0.0 0.00 0.04 0.00 97 950.3
20260510084521 0 181 0.0 0.0 0.00 0.04 0.00 97 950.3
20260510083018 45 181 0.0 0.0 0.00 0.04 0.00 97 950.9
20260510081532 45 181 0.0 0.0 0.00 0.04 0.00 97 950.8
20260510080015 45 181 0.0 0.0 0.00 0.04 0.00 97 950.8
20260510074514 45 181 0.0 0.0 0.00 0.04 0.00 97 950.7
20260510073012 45 181 0.0 0.0 0.00 0.04 0.00 97 950.9
20260510071510 45 181 0.0 3.0 0.00 0.04 0.00 97 951.0
20260510070008 0 175 0.0 6.0 0.00 0.04 0.00 97 950.9
20260510064506 45 182 0.0 5.0 0.00 0.04 0.00 97 950.9
20260510063005 44 184 0.0 3.0 0.00 0.04 0.00 97 950.9
20260510061504 44 183 0.0 5.0 0.00 0.04 0.00 97 951.0
20260510060001 44 211 0.0 0.0 0.00 0.04 0.00 97 951.1
20260510054613 44 211 0.0 2.0 0.00 0.04 0.00 97 951.2
20260510053058 44 211 0.0 0.0 0.00 0.04 0.00 97 951.0
20260510051557 0 211 0.0 4.0 0.00 0.04 0.00 96 951.2
20260510050059 43 212 0.0 3.0 0.00 0.04 0.00 96 951.4
20260510044553 43 223 0.0 5.0 0.00 0.04 0.00 96 951.3
20260510043051 43 227 0.0 8.0 0.00 0.04 0.00 96 951.1
20260510041602 43 208 0.0 3.0 0.00 0.04 0.00 96 951.2
20260510040045 43 203 0.0 7.0 0.00 0.04 0.00 96 951.4
20260510034553 43 218 2.0 6.0 0.00 0.04 0.04 96 951.4
20260510033050 43 218 3.0 7.0 0.00 0.04 0.04 96 951.3
20260510031550 43 200 0.0 4.0 0.00 0.04 0.04 96 951.5
20260510030040 43 201 2.0 8.0 0.00 0.04 0.04 96 951.5
20260510024555 0 225 4.0 7.0 0.00 0.04 0.04 96 951.5
20260510023039 43 211 1.0 7.0 0.00 0.04 0.04 95 951.5
20260510021538 43 232 4.0 9.0 0.00 0.04 0.04 96 951.5
20260510020036 43 221 1.0 6.0 0.00 0.04 0.04 95 951.8
20260510014534 43 191 0.0 10.0 0.00 0.04 0.04 95 951.8
20260510013033 0 211 0.0 4.0 0.00 0.04 0.04 95 952.0
20260510011533 43 218 0.0 0.0 0.00 0.04 0.04 95 952.1
20260510010030 43 218 0.0 0.0 0.00 0.04 0.04 95 952.0
20260510004529 43 218 0.0 3.0 0.00 0.04 0.04 95 951.8
20260510003029 43 222 0.0 0.0 0.00 0.04 0.04 95 951.8
20260510001529 43 222 0.0 0.0 0.00 0.04 0.04 95 951.7
20260510000027 43 222 0.0 4.0 0.00 0.04 0.04 95 951.5
20260509234527 0 218 2.0 6.0 0.00 0.04 0.04 94 951.6
20260509233023 43 187 0.0 2.0 0.00 0.04 0.04 94 951.5
20260509231522 43 187 0.0 0.0 0.01 0.04 0.04 94 951.6
20260509230021 43 187 0.0 0.0 0.01 0.04 0.04 94 951.4
20260509224519 43 187 0.0 0.0 0.01 0.04 0.04 94 951.6
20260509223020 43 186 0.0 1.0 0.01 0.04 0.04 94 951.6
20260509221516 43 186 0.0 2.0 0.00 0.03 0.03 94 951.7
20260509220013 43 223 0.0 0.0 0.00 0.03 0.03 93 951.8
20260509214512 43 223 0.0 0.0 0.00 0.03 0.03 93 951.9
20260509213011 43 174 0.0 5.0 0.00 0.03 0.03 93 951.9
20260509211515 0 209 0.0 4.0 0.00 0.03 0.03 93 952.0
20260509210007 43 209 0.0 5.0 0.00 0.03 0.03 92 951.9
20260509204505 43 223 1.0 7.0 0.00 0.03 0.03 92 952.1
20260509203007 44 163 2.0 6.0 0.00 0.03 0.03 92 952.1
20260509201503 44 213 0.0 4.0 0.00 0.03 0.03 92 952.2
20260509200100 44 225 2.0 5.0 0.00 0.03 0.03 92 952.3
20260509194558 44 236 0.0 2.0 0.00 0.03 0.03 92 952.4
20260509193058 0 244 0.0 1.0 0.00 0.03 0.03 92 952.3
20260509191556 44 248 0.0 0.0 0.00 0.03 0.03 91 952.4
20260509190055 44 248 0.0 0.0 0.00 0.03 0.03 91 952.6
20260509184551 44 248 0.0 0.0 0.00 0.03 0.03 91 952.7
20260509183050 44 248 0.0 0.0 0.01 0.03 0.03 90 952.9
20260509181549 43 249 1.0 6.0 0.01 0.03 0.03 90 952.9
20260509180046 44 261 0.0 5.0 0.01 0.03 0.03 89 953.0
20260509174545 44 162 0.0 7.0 0.02 0.03 0.03 89 953.1
20260509173108 44 227 2.0 8.0 0.01 0.02 0.02 87 953.3
20260509171545 44 219 0.0 7.0 0.02 0.02 0.02 84 953.3